Hourly Data Report for October 19, 2014

All times are specified in Local Standard Time (LST). Add 1 hour to adjust for Daylight Saving Time where and when it is observed.

CLYDE RIVER A
NUNAVUT

70°29'09.000" N
68°31'01.000" W
26.50 m
2400804
71090
YCY

Download Data

Hourly Data (October 2014)
Hourly Data Report for October 19, 2014
Temp Definition
°C
Dew Point Temp Definition
°C
Rel Hum Definition
%
Wind Dir Definition
10's deg

Wind Spd Definition
km/h
Visibility Definition
km
Stn Press Definition
kPa
Hmdx Definition


Wind Chill Definition


Weather Definition


TIME
00:00 Legend Double Dagger -9.8 -13.1 77 29 26 16.1 100.95   -19 LegendNANA
01:00 Legend Double Dagger -9.8 -12.8 79 26 13 16.1 100.97   -16 LegendNANA
02:00 Legend Double Dagger -9.3 -13.0 75 28 8 16.1 100.96   -14 LegendNANA
03:00 Legend Double Dagger -10.6 -13.9 77 27 8 16.1 100.98   -15 LegendNANA
04:00 Legend Double Dagger -13.3 -15.8 82 28 5 16.1 100.98   -17 LegendNANA
05:00 Legend Double Dagger -13.9 -16.2 83 29 8 16.1 100.98   -19 LegendNANA
06:00 Legend Double Dagger -13.1 -15.2 85 28 9 16.1 100.98   -19 LegendNANA
07:00 Legend Double Dagger -11.8 -13.9 85 27 9 16.1 100.97   -17 LegendNANA
08:00 Legend Double Dagger -10.3 -12.9 82 28 13 16.1 100.96   -17 LegendNANA
09:00 Legend Double Dagger -9.8 -12.8 79 27 8 16.1 100.94   -14 LegendNANA
10:00 Legend Double Dagger -9.5 -12.4 80 27 8 16.1 100.93   -14 LegendNANA
11:00 Legend Double Dagger -9.3 -13.0 75 29 8 16.1 100.92   -14 LegendNANA
12:00 Legend Double Dagger -9.5 -12.7 78 LegendMM 4 16.1 100.92   -12 LegendNANA
13:00 Legend Double Dagger -8.9 -12.7 74 29 24 16.1 100.92   -17 LegendNANA
14:00 Legend Double Dagger -7.8 -11.7 74 30 21 16.1 100.94   -15 LegendNANA
15:00 Legend Double Dagger -9.0 -12.1 79 30 18 16.1 100.98   -16 LegendNANA
16:00 Legend Double Dagger -9.7 -13.3 75 28 18 16.1 101.05   -17 LegendNANA
17:00 Legend Double Dagger -8.5 -12.9 71 26 9 16.1 101.04   -13 LegendNANA
18:00 Legend Double Dagger -9.8 -13.4 75 26 9 16.1 101.06   -15 LegendNANA
19:00 Legend Double Dagger -7.9 -11.6 75 24 13 16.1 101.08   -14 LegendNANA
20:00 Legend Double Dagger -7.9 -12.1 72 24 11 16.1 101.09   -13 LegendNANA
21:00 Legend Double Dagger -8.2 -12.1 74 26 11 16.1 101.11   -13 LegendNANA
22:00 Legend Double Dagger -7.7 -10.6 80 29 17 16.1 101.11   -14 Snow
23:00 Legend Double Dagger -7.8 -10.7 80 30 15 16.1 101.11   -14 Snow

Notes on Data Quality.

Legend

  • E = Estimated
  • M = Missing
  • NA = Not Available
  • ‡ = Partner data that is not subject to review by the National Climate Archives
Date modified: